Location: Hurecourt
(47.9030°N, 6.0653°E)
Time: 10:00:42
(UTC+00:00)

SL-16 R/B - Pass Details

Date: 14 July 2020
Orbit: 985 x 1006 km, 99.5° (Epoch: 05 August)

Event Time Altitude Azimuth Distance (km) Brightness Sun altitude
Exits shadow 00:11:55 10° 129° (SE) 2,744 4.6 -20.1°
Maximum altitude 00:17:34 40° 63° (ENE) 1,449 3.7 -20.0°
Drops below altitude 10° 00:23:19 10° 356° (N) 2,794 6.0 -19.8°
Sets 00:25:57 0° 350° (N) 3,748 6.8 -19.8°
